Wind_Speed
48 48 49 49 49 49 50 50 50 49 49 49 49 50 50 50 50 50 50 50 49 49 48 49 48 47 46 45 43 41 40 41 40 39 39 39 39 39
48 49 49 49 50 50 51 50 51 51 51 50 50 50 51 50 51 51 50 50 49 49 49 48 47 47 45 44 43 41 40 40 40 39 39 39 39 39
48 49 50 50 50 50 50 51 51 52 51 50 50 50 50 50 50 50 50 50 49 48 48 48 47 46 45 44 42 42 41 40 40 39 39 39 39 40
49 49 49 49 49 49 49 49 50 51 50 48 48 49 49 49 50 50 50 49 48 47 47 47 46 45 44 42 42 42 42 41 40 40 40 40 40 40
50 49 48 47 47 48 47 47 48 48 48 48 47 47 47 47 48 49 49 49 48 47 46 45 45 44 43 42 42 42 42 41 41 41 40 39 39 38
49 48 48 48 47 47 47 47 47 47 47 46 45 45 44 45 46 46 46 46 46 45 44 43 43 42 41 41 40 40 40 40 40 39 38 37 37 36
46 46 46 46 46 46 47 47 47 47 46 45 44 42 43 43 43 43 42 42 41 40 40 40 40 39 38 38 39 39 39 38 38 37 35 35 34 34
44 44 44 45 46 46 46 46 46 45 44 43 42 41 41 41 40 39 38 38 37 36 37 37 37 36 36 37 38 37 37 36 35 34 33 33 32 32
42 42 42 43 44 44 44 44 44 44 43 42 41 39 38 38 38 37 37 36 35 34 35 34 34 34 34 35 35 34 33 33 32 32 31 30 29 29
39 39 39 40 41 42 43 43 43 41 40 38 37 36 35 35 35 34 33 33 32 33 33 32 32 32 32 33 32 31 30 29 29 29 29 29 29 28
37 37 37 37 38 40 39 39 39 38 37 35 34 34 34 33 32 32 31 31 30 30 30 29 28 29 29 29 28 28 26 26 26 27 27 27 27 27
35 35 35 36 36 35 34 34 34 34 34 33 33 32 31 31 31 31 31 30 29 28 28 27 26 26 25 25 26 24 24 24 24 24 24 24 24 24
31 32 33 33 32 31 31 31 30 30 30 30 30 30 29 30 30 29 29 27 26 26 26 26 25 24 24 23 23 23 22 22 23 23 23 23 23 24
28 29 29 29 28 28 27 28 28 27 27 27 28 29 29 28 28 27 26 25 25 25 25 24 24 24 23 22 22 22 21 21 22 22 23 23 23 23
26 26 26 25 24 24 24 25 26 25 25 25 26 26 26 26 26 25 25 25 25 25 24 24 23 23 22 22 21 21 21 21 21 21 22 22 22 22
24 23 23 22 22 22 23 23 23 23 24 24 25 24 24 24 24 24 24 25 25 24 24 22 22 22 21 21 21 21 20 20 20 20 20 20 21 21
20 20 20 21 21 22 22 22 22 22 22 22 22 23 22 22 22 22 22 22 22 22 21 21 22 22 21 20 20 20 20 19 19 19 20 20 20 20
19 18 18 19 19 20 20 20 19 19 20 20 20 19 19 19 19 20 20 20 20 20 20 20 20 20 20 19 19 19 18 18 19 19 19 19 18 18
17 17 17 17 18 18 18 18 18 18 18 18 17 17 17 17 17 17 17 16 17 17 17 17 17 17 17 17 17 17 17 17 17 17 18 18 17 18
16 16 16 17 17 18 17 17 17 16 16 15 15 15 15 14 14 14 13 13 13 13 13 13 13 14 14 14 14 15 15 15 15 15 16 16 16 16
14 14 15 15 16 15 15 15 15 15 14 14 14 13 12 12 11 11 10 10 10 10 10 10 11 11 11 12 12 12 13 13 13 14 14 15 15 15
14 14 15 14 14 14 13 13 13 13 13 13 12 12 11 10 10 10 9 9 9 9 9 9 9 9 10 11 11 11 11 12 13 13 13 13 13 12
14 14 14 14 13 13 13 13 12 12 12 12 11 11 11 11 10 9 9 9 9 9 9 9 9 10 10 11 11 11 11 11 11 12 12 11 10 9
Wind_Direction
269 269 270 270 271 272 274 276 276 276 276 276 277 278 278 278 278 279 280 280 280 281 282 283 283 283 283 283 283 282 280 280 282 282 281 280 279 280
268 269 270 271 272 273 274 275 276 276 277 277 277 278 278 278 278 279 279 279 279 280 281 282 283 284 283 282 282 280 281 282 282 282 281 279 278 279
268 269 270 271 273 274 274 275 275 276 278 278 278 277 277 278 278 278 279 279 280 280 280 280 281 282 281 280 281 281 281 282 282 281 280 279 279 280
269 270 271 272 273 273 274 275 275 277 278 278 278 278 278 277 277 278 278 279 280 279 279 279 280 280 279 280 280 281 281 281 281 281 280 280 279 279
269 270 271 273 273 273 274 275 276 277 278 279 279 279 278 277 277 278 278 279 279 279 278 279 279 278 278 279 280 280 280 280 280 280 280 280 280 278
270 271 272 272 272 273 273 275 276 277 278 279 280 279 277 277 278 278 278 279 278 279 278 278 277 277 277 279 280 280 281 280 280 280 279 279 279 278
271 271 272 272 273 274 275 275 276 278 279 279 279 278 278 279 280 279 279 279 279 279 279 278 278 277 277 279 279 280 280 281 281 280 278 278 279 279
271 271 271 272 274 275 276 276 277 278 278 277 278 278 279 279 278 279 279 278 277 278 278 278 279 278 277 279 280 282 281 280 280 280 279 279 280 280
271 271 272 274 274 274 274 274 275 276 276 276 276 278 279 279 279 278 278 277 277 277 278 278 278 279 278 280 281 282 282 282 281 280 280 281 280 280
270 272 274 275 274 274 274 274 275 275 275 275 276 278 278 278 278 278 277 277 277 279 280 279 280 280 278 280 280 279 280 280 280 281 281 282 282 281
270 273 275 276 276 276 275 274 274 274 273 273 275 276 277 277 276 276 277 277 279 280 280 279 280 280 279 280 279 279 279 280 281 282 283 283 283 281
272 274 276 277 278 276 275 275 274 274 272 273 274 276 276 276 276 277 277 278 279 279 278 278 279 279 279 279 280 279 279 281 283 284 285 286 285 283
275 277 277 277 277 276 276 275 275 274 273 273 273 274 275 275 275 276 278 278 279 279 277 277 279 279 278 277 279 279 279 280 283 286 287 287 287 286
277 279 278 278 277 275 274 274 274 274 275 275 273 274 275 275 275 276 276 277 278 279 278 279 281 279 277 277 277 278 279 281 283 286 287 287 286 285
279 280 279 278 275 274 274 274 275 274 274 274 274 275 275 275 276 276 276 276 277 278 278 279 280 280 278 277 276 276 278 282 284 285 286 286 286 284
280 279 277 276 275 274 274 275 274 274 275 275 276 276 275 274 274 274 275 276 276 275 275 276 277 278 278 276 276 276 277 280 283 284 286 287 287 286
280 279 277 276 275 276 276 276 276 275 275 275 275 274 273 274 274 274 275 276 275 273 273 274 276 277 277 277 277 278 279 279 281 285 286 288 289 289
281 281 279 278 278 279 280 278 276 275 275 274 275 274 274 273 276 277 277 275 273 271 271 274 276 277 278 278 279 279 279 280 282 285 287 290 292 291
283 282 282 282 283 283 282 280 276 274 273 274 275 275 274 275 277 278 276 272 272 271 270 272 275 276 277 277 277 279 281 283 285 286 289 291 295 296
284 283 283 285 286 286 284 282 279 275 274 275 275 274 274 274 274 276 272 269 270 270 271 271 273 275 278 280 281 283 285 285 286 289 292 293 297 299
286 287 289 290 290 287 284 280 277 273 272 272 272 271 270 270 269 270 273 271 271 270 269 270 272 274 278 284 288 289 288 286 287 291 293 296 300 302
290 292 294 294 292 289 286 281 277 273 271 269 268 264 263 264 267 270 272 271 271 268 266 268 268 272 279 287 291 291 290 289 289 293 296 298 300 303
293 295 296 294 291 288 285 281 274 270 268 266 264 260 260 264 265 266 268 270 269 267 267 271 274 277 283 288 291 293 293 292 291 294 298 301 303 308
Height
5651 5651 5651 5652 5651 5651 5650 5650 5650 5650 5651 5650 5648 5646 5643 5642 5640 5639 5637 5635 5633 5632 5630 5628 5626 5624 5622 5619 5616 5614 5612 5610 5608 5606 5604 5603 5601 5600
5638 5638 5638 5638 5638 5637 5637 5636 5635 5635 5636 5636 5634 5632 5629 5628 5627 5625 5624 5622 5620 5619 5617 5615 5613 5611 5609 5607 5605 5603 5601 5599 5597 5596 5594 5592 5591 5589
5625 5625 5625 5624 5624 5624 5623 5622 5621 5620 5620 5622 5620 5618 5615 5614 5612 5611 5610 5608 5607 5605 5604 5602 5600 5599 5597 5595 5593 5591 5589 5588 5586 5585 5583 5582 5580 5579
5612 5612 5612 5611 5611 5610 5609 5608 5608 5606 5605 5606 5605 5604 5602 5600 5598 5597 5596 5595 5593 5592 5590 5589 5588 5586 5584 5583 5581 5580 5578 5576 5575 5573 5572 5571 5569 5567
5598 5598 5598 5598 5597 5597 5596 5595 5594 5593 5592 5591 5591 5589 5588 5586 5584 5583 5582 5581 5580 5578 5577 5576 5575 5574 5572 5571 5569 5568 5567 5565 5564 5562 5561 5559 5558 5556
5585 5585 5585 5584 5584 5584 5583 5583 5581 5580 5579 5577 5577 5576 5574 5572 5571 5570 5569 5567 5566 5565 5564 5564 5563 5561 5561 5560 5559 5557 5555 5554 5552 5551 5549 5548 5547 5545
5572 5572 5571 5571 5571 5570 5570 5569 5568 5567 5566 5565 5564 5563 5562 5560 5559 5558 5557 5556 5555 5553 5553 5552 5551 5551 5550 5549 5547 5546 5545 5543 5541 5540 5539 5538 5537 5535
5560 5560 5559 5559 5558 5557 5557 5556 5555 5554 5553 5552 5552 5551 5550 5548 5547 5546 5545 5545 5545 5544 5542 5542 5541 5540 5539 5538 5537 5536 5534 5533 5531 5530 5529 5529 5528 5526
5547 5547 5547 5546 5545 5544 5544 5543 5543 5541 5541 5540 5540 5539 5538 5538 5537 5537 5535 5534 5534 5534 5533 5533 5531 5530 5529 5528 5527 5525 5524 5523 5522 5521 5521 5520 5519 5518
5536 5536 5535 5534 5533 5532 5531 5531 5530 5530 5529 5529 5529 5529 5528 5527 5527 5526 5526 5525 5525 5524 5523 5523 5522 5521 5520 5519 5518 5516 5515 5514 5513 5513 5512 5511 5510 5510
5525 5525 5524 5523 5521 5520 5519 5519 5519 5519 5518 5518 5518 5518 5518 5517 5517 5517 5517 5516 5516 5516 5515 5515 5514 5513 5512 5511 5509 5508 5507 5506 5505 5505 5504 5503 5502 5502
5515 5514 5513 5512 5511 5509 5509 5508 5509 5508 5508 5508 5508 5509 5509 5509 5509 5508 5508 5507 5507 5508 5507 5506 5506 5504 5504 5503 5502 5501 5500 5499 5498 5498 5497 5496 5495 5494
5505 5505 5504 5502 5501 5500 5500 5499 5499 5499 5499 5499 5499 5500 5500 5500 5500 5500 5499 5499 5499 5500 5499 5498 5498 5497 5496 5496 5496 5495 5494 5493 5492 5491 5490 5489 5488 5488
5496 5496 5495 5493 5492 5492 5492 5491 5491 5491 5491 5491 5491 5491 5492 5492 5491 5491 5491 5491 5491 5492 5491 5491 5490 5490 5489 5489 5489 5488 5488 5487 5486 5485 5484 5482 5482 5481
5488 5487 5486 5485 5484 5484 5484 5484 5483 5483 5483 5483 5483 5483 5484 5483 5483 5483 5483 5483 5484 5484 5484 5483 5483 5482 5482 5482 5482 5482 5481 5481 5480 5478 5477 5476 5475 5474
5480 5479 5479 5478 5478 5477 5477 5477 5476 5476 5476 5476 5476 5476 5476 5476 5475 5475 5476 5476 5476 5476 5476 5476 5476 5476 5476 5475 5475 5475 5475 5474 5474 5472 5471 5470 5469 5468
5474 5473 5473 5472 5471 5471 5470 5470 5469 5469 5469 5469 5468 5468 5468 5468 5468 5468 5468 5468 5469 5469 5470 5470 5469 5469 5469 5469 5469 5469 5468 5468 5467 5466 5465 5464 5463 5461
5468 5467 5467 5466 5466 5465 5464 5463 5463 5462 5462 5462 5462 5461 5462 5462 5462 5462 5462 5462 5462 5463 5463 5463 5463 5463 5463 5463 5463 5463 5463 5462 5462 5461 5459 5458 5457 5455
5463 5462 5462 5461 5460 5459 5458 5457 5457 5457 5456 5456 5456 5456 5456 5456 5456 5456 5456 5456 5456 5456 5457 5457 5457 5457 5458 5458 5458 5457 5457 5456 5456 5455 5454 5453 5452 5450
5458 5457 5457 5456 5455 5454 5453 5452 5452 5451 5451 5451 5451 5451 5451 5451 5451 5451 5451 5451 5451 5451 5452 5452 5452 5452 5453 5453 5453 5453 5452 5451 5450 5450 5449 5447 5446 5444
5454 5453 5452 5451 5450 5449 5448 5447 5447 5447 5446 5446 5446 5446 5446 5447 5447 5447 5447 5447 5447 5448 5448 5449 5449 5449 5448 5448 5449 5448 5448 5447 5445 5445 5444 5442 5441 5439
5449 5448 5447 5446 5445 5444 5444 5443 5443 5442 5442 5442 5442 5443 5443 5443 5444 5444 5444 5444 5444 5445 5445 5446 5446 5445 5445 5445 5445 5444 5444 5443 5441 5440 5439 5438 5437 5436
5445 5444 5443 5442 5441 5440 5440 5439 5439 5439 5439 5439 5439 5439 5440 5440 5441 5441 5441 5441 5442 5442 5442 5443 5443 5442 5442 5442 5441 5441 5440 5439 5437 5436 5436 5434 5433 5432